Location: American Canyon
(38.1966°N, 122.1514°W)
Time: 13:29:29
(UTC+00:00)

ADEOS Rocket - Pass Details

Date: 29 October 2020
Orbit: 859 x 1306 km, 98.7° (Epoch: 01 December)

Event Time Altitude Azimuth Distance (km) Brightness Sun altitude
Rises 12:42:40 0° 181° (S) 3,448 5.9 -22.0°
Reaches altitude 10° 12:45:08 10° 187° (S) 2,496 5.1 -21.5°
Maximum altitude 12:50:23 47° 261° (W) 1,126 2.9 -20.5°
Drops below altitude 10° 12:55:45 10° 335° (NNW) 2,543 4.9 -19.5°
Sets 12:58:17 0° 341° (NNW) 3,520 5.7 -19.0°
